Weather in Siping

China     43°09′56″N   124°22′08″E
temp.,
°C
wind,
m/s
gust,
m/s
humid.,
%
clouds,
%
prec.,
mm/h
press.,
hPa
HPBL,
m
7 march, sun
sun723:00−8sse24460 0.0 1035118
02:00−9s34480 0.0 1033110
05:00−9ssw35500 0.0 1032119
08:00−7ssw47370 0.0 1031297
11:00−2sw58220 0.0 1030548
14:00+2sw57170 0.0 1028766
17:00+1ssw34230 0.0 102793
20:00−2ssw34290 0.0 102955
8 march, mon
mon823:00−3ssw34340 0.0 102967
02:00−3ssw34340 0.0 102976
05:00−4ssw37404 0.0 1029130
08:00−1s483040 0.0 1029277
11:00+5ssw57200 0.0 1027570
14:00+7ssw68222 0.0 1024857
17:00+4ssw493858 0.0 1022219
20:00+1ssw5145429 0.0 1023288
9 march, tue
tue923:00+1ssw717580 0.0 1022476
02:000ssw717600 0.0 1022504
05:000sw614690 0.0 1021491
08:00+1sw610660 0.0 1024448
11:00+5nnw35470 0.0 1025757
14:00+8n57300 0.0 10261484
17:00+6nne47350 0.0 1028267
20:000ene49440 0.0 1031190
10 march, wed
wed1023:00−1ese48480 0.0 1031184
02:00−1se38420 0.0 1030167
05:00−1se483667 0.0 1029178
08:00+2sse482683 0.0 1028248
11:00+8s571999 0.0 1025798
14:00+7ssw51053100 0.1 1022975
17:00+9sw4115733 0.0 1021324
20:00+6ssw5146717 0.0 1022368
11 march, thu
thu1123:00+5ssw514780 0.0 1023412
02:00+2sw49910 0.0 1024216
05:00+1sw229545 0.0 102526
08:00+3e228673 0.0 1027170
11:00+7e3369100 0.0 1028618
14:00+9ese345896 0.0 10271003
17:00+8ene465879 0.0 1027475
20:00+3ene596979 0.0 1028305